Regional Weather Roundup
Issued by NWS Newport/Morehead, NC

Current Version | Previous Version | Graphics & Text | Print | Product List | Glossary On
Versions: 1 2 3 4 5 6 7 8 9 10 11 12 13 14 15 16 17 18 19 20 21 22 23 24 25 26 27 28 29 30 31 32 33 34 35 36 37 38 39 40 41 42 43 44 45 46 47 48 49 50
000 ASUS42 KMHX 310922 RWRMHX WEATHER ROUNDUP FOR EASTERN NORTH CAROLINA NATIONAL WEATHER SERVICE NEWPORT/MOREHEAD CITY NC 500 AM EDT THU JUL 31 2014 NOTE: "FAIR" INDICATES FEW OR NO CLOUDS BELOW 12,000 FEET WITH NO SIGNIFICANT WEATHER AND/OR OBSTRUCTIONS TO VISIBILITY NCZ015>017-031-032-045>047-102-103-311000- NORTH COAST CITY SKY/WX TMP DP RH WIND PRES REMARKS EDENTON MOCLDY 65 63 95 CALM 30.10R ELIZABETH CITY MOCLDY 66 62 87 CALM 30.10R KITTY HAWK PTSUNNY 71 63 74 CALM 30.09R MANTEO NOT AVBL $$ NCZ045>047-081-094-103-104-311000- CENTRAL COAST CITY SKY/WX TMP DP RH WIND PRES REMARKS FRISCO PTCLDY 73 65 75 NE6 30.08R SWANQUARTER N/A 68 N/A N/A NE3 30.06R $$ NCZ095-097-098-100-101-311000- SOUTHERN COAST CITY SKY/WX TMP DP RH WIND PRES REMARKS BEAUFORT PTCLDY 71 68 90 CALM 30.07S CEDAR ISLAND N/A 77 N/A N/A E7 30.12S JACKSONVILLE PTCLDY 73 68 84 E6 30.06S NEWPORT NOT AVBL PINEY ISLAND MOSUNNY 78 68 71 E7 30.07R WILMINGTON PTCLDY 70 67 90 CALM 30.05F $$ NCZ011>013-027>030-043-044-078>080-089-090>093-098-311000- COASTAL PLAIN CITY SKY/WX TMP DP RH WIND PRES REMARKS AHOSKIE PTCLDY 62 60 94 CALM 30.10S CLINTON CLOUDY 70 68 94 CALM 30.08S ELIZABETHTOWN MOCLDY 68 67 97 CALM 30.07S GOLDSBORO CLOUDY 69 68 98 E2 30.07R GREENVILLE MOCLDY 64 64 100 CALM 30.10S HAVELOCK PTCLDY 70 67 90 CALM 30.08S KENANSVILLE CLOUDY 67 65 94 CALM 30.08S KINSTON MOCLDY 67 66 96 CALM 30.09S NEW BERN PTCLDY 69 65 86 CALM 30.09R RICHLANDS PTCLDY 64 61 88 CALM 30.08R ROANOKE RAPIDS NOT AVBL ROCKY MOUNT MOCLDY 65 64 97 CALM 30.09S WASHINGTON CLOUDY 65 63 93 CALM 30.09R WHITEVILLE PTCLDY 68 66 93 CALM 30.06R $$ AMZ130-135-150-152-154-156-158-170-250-252-270-ANZ085-086-088-633-658-670-311000- MARINE OBSERVATIONS STATION/POSITION TIME TEMP WIND PRES WAVE SWELL AIR SEA DIR/SP/G HT/PER HT/PER (UTC) (F) (DEG/KT/KT) (MB) (FT/S) (FT/S) CHESAPEAKE LIGHT NOT AVBL BUOY 44014 0900 75 78 140/ 4/ 6 1018.9 2/ 8 2/ 8 DUCK 0900 75 76 130/ 6/ 7 1018.3 2E DUCK 0900 N/A 2/ 7 OREGON INLET 0900 74 79 90/ 4/ 6 1018.7 BUOY 44095 0900 78 N/A 3/ 7 20E OREGON INLET NOT AVBL HATTERAS CG 0900 74 80 80/ 4/ 5 1018.7 DIAMOND BUOY 0900 VRB 10/ 12 1018.0 4/ 7 3/ 7 CAPE LOOKOUT 0900 79 90/ 11/ 12 1017.8 BEAUFORT LAB 0900 72 82 30/ 4/ 5 1017.5 30 SE NEW RIVER 0900 80 81 80/ 12/ 14 1017.8 3/ 7 3/ 7 5 SE WRIGHTSVILL 0900 76 81 90/ 12/ 16 N/A BUOY 41002 0753 79 80 10/ 4/ 6 1016.8 4/ 6 3/ 6 BUOY 41004 0900 82 83 70/ 12/ 16 1015.1 4/ 6 2/ 6 $$

USA.gov is the U.S. government's official web portal to all federal, state and local government web resources and services.